This is the latest recevied weather packets stored in our database for station/object N0HEQ. If no packets are shown the sender has not sent any weather packets the latest 10 day(s).
| Time | Temp. | Humidity | Pressure | Rain* | Wind** | Luminosity | Snow |
|---|---|---|---|---|---|---|---|
| 1777254670 | 10° C | 70% | 1006.7 hPa | 0 mm | - | 2 W/m² | - |
| 1777254367 | 10° C | 69% | 1006.5 hPa | 0 mm | - | 3 W/m² | - |
| 1777254062 | 10° C | 68% | 1006.4 hPa | 0 mm | - | 5 W/m² | - |
| 1777253760 | 10.56° C | 66% | 1006.7 hPa | 0 mm | - | 6 W/m² | - |
| 1777253457 | 10.56° C | 63% | 1006.9 hPa | 0 mm | - | 6 W/m² | - |
| 1777253154 | 10.56° C | 64% | 1006.9 hPa | 0 mm | - | 8 W/m² | - |
| 1777252852 | 10.56° C | 66% | 1006.8 hPa | 0 mm | - | 12 W/m² | - |
| 1777252549 | 10.56° C | 66% | 1006.7 hPa | 0 mm | - | 10 W/m² | - |
| 1777252246 | 10.56° C | 66% | 1006.3 hPa | 0 mm | - | 10 W/m² | - |
| 1777251943 | 10.56° C | 66% | 1006.1 hPa | 0 mm | - | 14 W/m² | - |
| 1777251641 | 10° C | 67% | 1005.8 hPa | 0 mm | - | 21 W/m² | - |
| 1777251337 | 10° C | 66% | 1005.8 hPa | 0 mm | - | 26 W/m² | - |
| 1777251033 | 10.56° C | 65% | 1006 hPa | 0 mm | - | 27 W/m² | - |
| 1777250729 | 10.56° C | 65% | 1005.6 hPa | 0 mm | - | 21 W/m² | - |
| 1777250426 | 10.56° C | 65% | 1005.7 hPa | 0 mm | - | 19 W/m² | - |
| 1777250126 | 11.11° C | 62% | 1005.6 hPa | 0 mm | - | 21 W/m² | - |
| 1777249823 | 11.11° C | 62% | 1005.5 hPa | 0 mm | - | 29 W/m² | - |
| 1777249519 | 11.11° C | 61% | 1005.5 hPa | 0 mm | - | 40 W/m² | - |
| 1777249216 | 11.11° C | 60% | 1005.5 hPa | 0 mm | - | 45 W/m² | - |
| 1777248914 | 11.11° C | 59% | 1005.5 hPa | 0 mm | - | 40 W/m² | - |
| 1777248609 | 11.11° C | 61% | 1005.5 hPa | 0 mm | - | 35 W/m² | - |
| 1777248306 | 11.67° C | 60% | 1005.7 hPa | 0 mm | - | 30 W/m² | - |
| 1777248003 | 11.67° C | 58% | 1005.8 hPa | 0 mm | - | 33 W/m² | - |
| 1777247701 | 12.22° C | 59% | 1005.7 hPa | 0 mm | - | 70 W/m² | - |
| 1777247399 | 12.22° C | 55% | 1005.5 hPa | 0 mm | - | 58 W/m² | - |
* Rain latest hour (hover to see other rain measurements)
** Current wind speed in m/s (hover to see current wind gust speed)